Location: Rosenheim
(47.8408°N, 12.2113°E)
Time: 18:21:27
(UTC+01:00)

ISS - Pass Details

Date: 14 November 2017
Orbit: 401 x 407 km, 51.6° (Epoch: 18 November)

Event Time Altitude Azimuth Distance (km) Brightness Sun altitude
Exits shadow 05:45:32 35° 273° (W) 671 -3.3 -15.1°
Maximum altitude 05:46:39 58° 209° (SSW) 472 -3.7 -14.9°
Drops below altitude 10° 05:49:51 10° 130° (SE) 1,450 0.0 -14.4°
Sets 05:51:56 0° 126° (SE) 2,306 1.3 -14.0°
